{"data":{"norad_id":45064,"intl_designator":"2020-006W","name":"STARLINK-1133","alt_names":[],"object_type":"PAYLOAD","status":"ACTIVE","operator":null,"country":"US","launch_date":"2020-01-29","launch_site_code":"AFETR","launch_vehicle":null,"mission":null,"orbit_class":"UNKNOWN","rcs_meters":null,"size_class":null,"mass_kg":null,"dimensions":null,"purposes":["comms"],"wikipedia_slug":null,"has_3d_model":false,"image_url":null,"decayed_at":null,"tle_current":{"epoch":"2026-05-25T00:39:52.066080Z","epoch_age_seconds":86856,"freshness":"FRESH","line1":"1 45064U 20006W   26145.02768595  .00040281  00000+0  12230-2 0  9991","line2":"2 45064  53.1554 262.6055 0003137 324.2584  35.8208 15.33715076348573","mean_motion":15.33715076,"eccentricity":0.0003137,"inclination_deg":53.1554,"raan_deg":262.6055,"arg_perigee_deg":324.2584,"mean_anomaly_deg":35.8208,"bstar":0.001223,"rev_number":34857,"period_min":93.889668461471,"perigee_km":462.59312580388,"apogee_km":466.88634666819,"semimajor_km":6842.876736236,"source":"CELESTRAK","updated_at":"2026-05-25T13:38:16.378468Z"}}}